2024-174A

Last updated on Fri Oct 25 2024 00:02:04 GMT+0000 (Coordinated Universal Time)

1 61238U 24174A 24298.58196255 .00012102 00000+0 61323-3 0 9997 2 61238 97.4565 303.3784 0015343 178.5515 181.5765 15.17016770 4499
UTC large
Height (km)
Speed (km/s)
/
Latitude / Longitude
Inclination (degrees)
Orbital Period (minutes)
Azimuth
Elevation
Range (km)
Doppler Factor

Next 0 passes for location: London (51.5072 / 0.1276)

Sorry there are no passes over London.